Location: Prague
(50.0833°N, 14.4667°E)
Time: 21:05:34
(UTC+02:00)

ISS - Pass Details

Date: 29 May 2024
Orbit: 410 x 421 km, 51.6° (Epoch: 12 June)

Event Time Altitude Azimuth Distance (km) Brightness Sun altitude
Rises 20:42:24 0° 285° (WNW) 2,376 1.8 1.5°
Reaches altitude 10° 20:44:49 10° 269° (W) 1,506 0.1 1.2°
Maximum altitude 20:47:28 22° 218° (SW) 984 -1.8 0.8°
Drops below altitude 10° 20:50:07 10° 165° (SSE) 1,493 -1.4 0.5°
Sets 20:52:29 0° 150° (SSE) 2,349 -0.5 0.2°
